weather.gov     
National Weather Service

Terminal Aerodrome Forecast
NWS Homepage
This page is being discontinued on March 12, 2014.
The same data is available at this site. Please update your bookmarks.
Thank you, and we apologize for the inconvenience.
Please send an email to SR-SRH.Webmaster@noaa.gov with any concerns.


Current Version
Previous Version:    01  02  03  04  05  06  07  08  09  10  11  12  13  14  
[Printable]
660
FTUS41 KGYX 310500
TAFPWM
TAF
KPWM 310528Z 3106/0106 VRB03KT 1/4SM FG VV001
     FM311200 26003KT 2SM BR BKN005
     FM311300 22004KT P6SM SCT250
     FM311800 17010KT P6SM BKN100 PROB30 3118/3123 2SM TSRA BR
      BKN025CB
     FM312300 19008KT P6SM SCT050 BKN250
     FM010500 21005KT 4SM BR FEW002 SCT250=


U.S. Dept. of Commerce
NOAA National Weather Service
1325 East West Highway
Silver Spring, MD 20910
E-mail: w-nws.webmaster@noaa.gov
Page last modified: May 16, 2007
NATIONAL WEATHER SERVICE: for Safety, for Work, for Fun - FOR LIFE